TimeEST,TemperatureF,Dew PointF,Humidity,Sea Level PressureIn,VisibilityMPH,Wind Direction,Wind SpeedMPH,Gust SpeedMPH,PrecipitationIn,Events,Conditions,WindDirDegrees,DateUTC
12:17 AM,46.4,46.4,100,29.75,10.0,South,5.8,-,N/A,,Overcast,170,2001-01-20 05:17:00
12:37 AM,46.4,46.4,100,29.75,10.0,South,8.1,-,N/A,,Overcast,180,2001-01-20 05:37:00
12:57 AM,46.4,46.4,100,29.73,10.0,SSE,5.8,-,N/A,,Overcast,160,2001-01-20 05:57:00
1:17 AM,46.4,46.4,100,29.71,4.0,SSE,4.6,-,N/A,,Overcast,160,2001-01-20 06:17:00
1:37 AM,46.4,46.4,100,29.73,7.0,South,5.8,-,N/A,,Overcast,170,2001-01-20 06:37:00
1:57 AM,46.4,46.4,100,29.71,5.0,South,5.8,-,N/A,,Overcast,170,2001-01-20 06:57:00
2:17 AM,46.4,46.4,100,29.70,1.8,SSE,5.8,-,N/A,,Overcast,160,2001-01-20 07:17:00
2:37 AM,46.4,46.4,100,29.73,4.0,SSE,4.6,-,N/A,,Overcast,160,2001-01-20 07:37:00
2:57 AM,44.6,42.8,93,29.70,1.2,SE,4.6,-,0.00,,Drizzle,130,2001-01-20 07:57:00
3:17 AM,44.6,42.8,93,29.74,0.8,West,6.9,-,0.01,,Heavy Drizzle,260,2001-01-20 08:17:00
3:37 AM,41.0,41.0,100,29.73,2.5,Calm,Calm,-,0.02,,Heavy Drizzle,0,2001-01-20 08:37:00
3:57 AM,39.2,37.4,93,29.74,1.0,North,3.5,-,0.00,,Heavy Drizzle,0,2001-01-20 08:57:00
4:17 AM,39.2,37.4,93,29.75,2.5,Calm,Calm,-,0.01,Rain,Heavy Rain,0,2001-01-20 09:17:00
4:37 AM,37.4,37.4,100,29.75,0.5,Calm,Calm,-,0.01,Rain,Rain,0,2001-01-20 09:37:00
4:57 AM,37.4,35.6,93,29.73,1.0,Calm,Calm,-,0.00,Rain,Rain,0,2001-01-20 09:57:00
5:17 AM,37.4,35.6,93,29.74,2.5,Calm,Calm,-,0.01,,Heavy Drizzle,0,2001-01-20 10:17:00
5:37 AM,37.4,35.6,93,29.74,2.0,Calm,Calm,-,0.01,Rain,Light Rain,0,2001-01-20 10:37:00
5:57 AM,37.4,35.6,93,29.74,2.5,NNW,3.5,-,0.00,Rain,Light Rain,330,2001-01-20 10:57:00
6:17 AM,37.4,35.6,93,29.73,3.0,Calm,Calm,-,0.00,Rain,Rain,0,2001-01-20 11:17:00
6:37 AM,37.4,35.6,93,29.73,2.0,NNW,3.5,-,0.00,Rain,Light Rain,340,2001-01-20 11:37:00
6:57 AM,35.6,33.8,93,29.74,2.0,Calm,Calm,-,0.01,Rain,Light Rain,0,2001-01-20 11:57:00
7:17 AM,35.6,33.8,93,29.75,2.5,Calm,Calm,-,0.01,,Heavy Drizzle,0,2001-01-20 12:17:00
7:37 AM,35.6,33.8,93,29.75,4.0,Calm,Calm,-,0.02,,Drizzle,0,2001-01-20 12:37:00
7:57 AM,35.6,33.8,93,29.76,4.0,West,9.2,-,0.00,Rain,Light Rain,280,2001-01-20 12:57:00
8:17 AM,35.6,33.8,93,29.76,2.0,WNW,10.4,-,0.00,,Drizzle,300,2001-01-20 13:17:00
8:37 AM,32.0,32.0,100,29.75,7.0,NW,6.9,18.4,N/A,,Overcast,310,2001-01-20 13:37:00
8:57 AM,32.0,32.0,100,29.76,7.0,NW,9.2,-,0.00,Rain,Light Rain,310,2001-01-20 13:57:00
9:17 AM,32.0,32.0,100,29.77,10.0,NNW,6.9,17.3,0.00,Rain,Rain,330,2001-01-20 14:17:00
9:37 AM,32.0,32.0,100,29.77,7.0,WNW,5.8,-,0.00,Rain,Rain,290,2001-01-20 14:37:00
9:57 AM,32.0,32.0,100,29.77,10.0,WNW,10.4,21.9,N/A,,Overcast,300,2001-01-20 14:57:00
10:17 AM,32.0,32.0,100,29.77,5.0,WNW,5.8,10.4,0.00,Snow,Light Snow,300,2001-01-20 15:17:00
10:37 AM,32.0,30.2,93,29.77,7.0,WNW,11.5,16.1,N/A,,Overcast,300,2001-01-20 15:37:00
10:57 AM,32.0,30.2,93,29.76,10.0,West,9.2,23.0,N/A,,Overcast,280,2001-01-20 15:57:00
11:17 AM,32.0,30.2,93,29.76,10.0,WNW,11.5,20.7,N/A,,Overcast,290,2001-01-20 16:17:00
11:37 AM,32.0,28.4,87,29.75,10.0,WNW,8.1,19.6,N/A,,Overcast,290,2001-01-20 16:37:00
11:57 AM,32.0,28.4,87,29.75,10.0,WNW,11.5,23.0,N/A,,Overcast,300,2001-01-20 16:57:00
12:17 PM,32.0,30.2,93,29.75,10.0,WNW,17.3,20.7,N/A,,Overcast,290,2001-01-20 17:17:00
12:37 PM,32.0,28.4,87,29.75,5.0,WNW,12.7,21.9,N/A,,Overcast,290,2001-01-20 17:37:00
12:57 PM,32.0,28.4,87,29.74,1.8,WNW,9.2,20.7,0.00,Snow,Light Snow,290,2001-01-20 17:57:00
1:17 PM,32.0,28.4,87,29.75,2.5,WNW,6.9,17.3,0.00,Snow,Light Snow,290,2001-01-20 18:17:00
1:37 PM,32.0,28.4,87,29.73,1.2,West,11.5,24.2,0.00,Snow,Light Snow,280,2001-01-20 18:37:00
1:57 PM,32.0,26.6,80,29.74,2.5,WNW,11.5,25.3,0.00,Snow,Light Snow,290,2001-01-20 18:57:00
2:17 PM,30.2,24.8,80,29.73,10.0,NW,11.5,25.3,N/A,,Overcast,310,2001-01-20 19:17:00
2:37 PM,30.2,24.8,80,29.75,7.0,NW,5.8,-,N/A,,Overcast,310,2001-01-20 19:37:00
2:57 PM,28.4,23.0,80,29.75,10.0,NW,11.5,16.1,N/A,,Overcast,310,2001-01-20 19:57:00
3:17 PM,28.4,23.0,80,29.76,10.0,WNW,8.1,24.2,N/A,,Overcast,290,2001-01-20 20:17:00
3:37 PM,28.4,23.0,80,29.76,7.0,NW,17.3,27.6,N/A,,Overcast,320,2001-01-20 20:37:00
3:57 PM,28.4,23.0,80,29.76,4.0,NW,16.1,23.0,0.00,Snow,Light Snow,310,2001-01-20 20:57:00
4:17 PM,28.4,23.0,80,29.77,4.0,WNW,15.0,20.7,0.00,Snow,Light Snow,300,2001-01-20 21:17:00
4:37 PM,28.4,23.0,80,29.77,7.0,WNW,20.7,33.4,0.00,Snow,Light Snow,300,2001-01-20 21:37:00
4:57 PM,28.4,21.2,74,29.78,7.0,NW,17.3,29.9,0.00,Snow,Light Snow,310,2001-01-20 21:57:00
5:17 PM,28.4,23.0,80,29.79,3.0,NW,10.4,23.0,0.00,Snow,Light Snow,320,2001-01-20 22:17:00
5:37 PM,26.6,21.2,80,29.80,1.0,NW,16.1,27.6,0.00,Snow,Light Snow,320,2001-01-20 22:37:00
5:57 PM,26.6,21.2,80,29.81,2.0,NW,15.0,26.5,0.00,Snow,Light Snow,310,2001-01-20 22:57:00
6:17 PM,24.8,19.4,80,29.82,1.5,WNW,10.4,32.2,0.00,Snow,Light Snow,290,2001-01-20 23:17:00
6:37 PM,23.0,17.6,80,29.83,4.0,WNW,8.1,27.6,0.00,Snow,Light Snow,290,2001-01-20 23:37:00
6:57 PM,23.0,19.4,86,29.84,2.0,NNW,11.5,24.2,0.00,Snow,Light Snow,330,2001-01-20 23:57:00
7:17 PM,21.2,15.8,80,29.85,2.5,NNW,12.7,21.9,0.00,Snow,Light Snow,330,2001-01-21 00:17:00
7:37 PM,21.2,14.0,74,29.86,2.5,NW,16.1,27.6,0.00,Snow,Light Snow,320,2001-01-21 00:37:00
7:57 PM,19.4,12.2,74,29.86,7.0,NW,17.3,33.4,0.00,Snow,Light Snow,320,2001-01-21 00:57:00
8:17 PM,19.4,12.2,74,29.88,5.0,NW,11.5,41.4,0.00,Snow,Light Snow,310,2001-01-21 01:17:00
8:37 PM,19.4,12.2,74,29.88,2.5,NW,16.1,28.8,0.00,Snow,Light Snow,310,2001-01-21 01:37:00
8:57 PM,19.4,12.2,74,29.88,2.5,NW,17.3,32.2,0.00,Snow,Light Snow,310,2001-01-21 01:57:00
9:17 PM,19.4,12.2,74,29.88,2.0,NW,19.6,42.6,0.00,Snow,Light Snow,310,2001-01-21 02:17:00
9:37 PM,19.4,12.2,74,29.88,3.0,NW,16.1,36.8,0.00,Snow,Light Snow,310,2001-01-21 02:37:00
9:57 PM,19.4,12.2,74,29.88,3.0,NW,19.6,35.7,0.00,Snow,Light Snow,320,2001-01-21 02:57:00
10:17 PM,19.4,12.2,74,29.89,2.5,NW,26.5,42.6,0.00,Snow,Light Snow,320,2001-01-21 03:17:00
10:37 PM,19.4,12.2,74,29.89,1.8,NW,24.2,46.0,0.00,Snow,Light Snow,320,2001-01-21 03:37:00
10:57 PM,19.4,12.2,74,29.89,1.5,WNW,27.6,43.7,0.00,Snow,Light Snow,300,2001-01-21 03:57:00
11:17 PM,19.4,14.0,80,29.90,0.5,WNW,24.2,36.8,0.00,Snow,Snow,300,2001-01-21 04:17:00
11:37 PM,19.4,14.0,80,29.91,0.5,WNW,26.5,38.0,0.00,Snow,Snow,290,2001-01-21 04:37:00
11:57 PM,19.4,14.0,80,29.92,0.8,NW,19.6,31.1,0.00,Snow,Snow,310,2001-01-21 04:57:00